EHI
8 6 3 4 6 6 6 5 2 0 1 2 3 2 2 2 2 1 1 1 0 0 0 0 0 0 0 0 0 0 0 0 0 0 0 0 0 0
8 6 4 4 4 5 5 4 2 1 1 1 1 1 1 1 1 1 1 1 0 0 0 0 0 0 0 0 0 0 0 0 0 0 0 0 0 0
6 5 5 4 3 3 3 3 3 3 1 0 0 0 0 0 1 0 0 1 0 0 0 0 0 0 0 0 0 0 0 0 0 0 0 0 0 0
4 4 5 4 3 2 1 1 2 2 1 0 0 0 0 0 0 0 0 0 0 0 0 0 0 0 0 0 0 0 0 0 0 0 0 0 0 0
3 4 4 4 2 1 0 0 0 1 1 0 0 0 0 0 0 0 0 0 0 0 0 0 0 0 0 0 0 0 0 0 0 0 0 0 0 0
3 3 3 2 1 0 0 0 0 1 0 0 0 0 0 0 0 0 0 0 0 0 0 0 0 0 0 0 0 0 0 0 0 0 0 0 0 0
2 1 1 0 0 0 0 0 0 0 0 0 0 0 0 0 0 0 0 0 0 0 0 0 0 0 0 0 0 0 0 0 0 0 0 0 0 0
2 1 0 0 0 0 0 0 0 0 0 0 0 0 0 0 0 0 0 0 0 0 0 0 0 0 0 0 0 0 0 0 0 0 0 0 0 0
1 0 0 0 0 0 0 0 0 0 0 0 0 0 0 0 0 0 0 0 0 1 1 1 0 0 0 0 0 0 0 0 0 0 0 0 0 0
0 0 0 0 0 0 0 0 0 0 0 0 0 0 0 0 0 0 0 0 0 1 1 1 0 0 0 0 0 0 0 0 0 0 0 0 0 0
0 0 0 0 0 0 0 0 0 0 0 0 0 0 0 0 0 0 0 0 0 0 0 0 0 0 0 0 0 0 0 0 0 0 0 0 0 0
0 0 0 0 0 0 0 0 0 0 0 0 0 0 0 0 0 0 0 0 0 0 0 0 0 0 0 0 0 0 0 0 0 0 0 0 0 0
1 0 0 0 0 0 0 0 0 0 0 0 0 0 0 0 0 0 0 0 0 0 0 0 0 0 0 0 0 0 0 0 0 0 0 0 0 0
2 1 0 0 0 0 0 0 0 0 0 0 0 0 0 0 0 0 0 0 0 0 0 0 0 0 0 0 0 0 0 0 0 0 0 0 0 0
2 1 0 0 0 0 0 0 0 0 0 0 0 0 0 0 0 0 0 0 0 0 0 0 0 0 0 0 0 0 0 0 0 0 0 0 0 0
1 0 0 0 0 0 0 0 0 0 0 0 0 0 0 0 0 0 0 0 0 0 0 0 0 0 0 0 0 0 0 0 0 0 0 0 0 0
0 0 0 0 0 0 0 0 0 0 0 0 0 0 0 0 0 0 0 0 0 0 0 0 0 0 0 0 0 0 0 0 0 0 0 0 0 0
0 0 0 0 0 0 0 0 0 0 0 0 0 0 0 0 0 0 0 0 0 0 0 0 0 0 0 0 0 0 0 0 0 0 0 0 0 0
0 0 0 0 0 0 0 0 0 0 0 0 0 0 0 0 0 0 0 0 0 0 0 0 0 0 0 0 0 0 0 0 0 0 0 0 0 0
0 0 0 0 0 0 0 0 0 0 0 0 0 0 0 0 0 0 0 0 0 0 0 0 0 0 0 0 0 0 0 0 0 0 0 0 0 0
0 0 0 0 0 0 0 0 0 0 0 0 0 0 0 0 0 0 0 0 0 0 0 0 0 0 0 0 0 0 0 0 0 0 0 0 0 0
0 0 0 0 0 0 0 0 0 0 0 0 0 0 0 0 0 0 0 0 0 0 0 0 0 0 0 0 0 0 0 0 0 0 0 0 0 0
0 0 0 0 0 0 0 0 0 0 0 0 0 0 0 0 0 0 0 0 0 0 0 0 0 0 0 0 0 0 0 0 0 0 0 0 0 0
Wind_Speed
5 5 4 3 4 3 3 4 4 4 3 3 2 1 1 1 2 1 2 7 7 6 6 6 6 7 6 6 6 6 5 5 6 6 6 7 7 7
3 3 3 3 3 3 3 4 5 4 3 2 1 1 2 1 3 2 3 8 8 7 7 7 7 7 7 7 6 6 6 6 6 7 7 8 7 7
3 3 3 3 2 3 3 3 3 3 3 1 1 1 2 2 2 2 3 3 5 8 8 8 8 7 7 7 7 6 6 7 7 7 7 7 7 6
3 3 3 2 2 2 2 3 2 2 3 3 2 1 1 2 3 2 3 4 5 9 9 9 9 9 8 7 8 7 6 6 6 7 7 6 6 6
2 2 2 2 2 1 2 2 1 2 2 3 3 2 2 2 3 3 4 4 5 7 9 9 9 9 9 9 9 8 7 7 6 6 6 6 6 5
1 1 1 1 1 1 1 1 1 2 2 3 3 3 3 3 3 3 3 3 3 4 5 7 9 9 9 9 9 9 8 7 6 6 6 6 6 6
1 1 1 3 3 2 1 1 2 2 2 3 3 3 4 4 4 3 4 4 3 3 4 4 4 4 6 7 8 8 7 7 7 6 6 6 6 6
1 1 2 3 4 3 3 2 0 2 2 2 3 4 4 5 4 4 5 4 3 2 3 2 2 3 3 4 7 7 7 6 6 5 5 5 5 5
1 1 1 3 1 2 3 3 2 2 1 2 2 2 4 4 5 5 4 3 2 4 3 2 2 3 2 5 8 7 6 6 5 5 5 5 4 4
1 1 1 2 2 2 1 2 3 3 2 1 1 1 2 3 4 4 4 4 3 3 2 2 3 2 2 4 8 7 6 6 5 5 5 5 4 4
2 2 2 2 4 2 1 3 3 3 5 6 6 5 6 5 4 4 5 4 3 3 2 2 3 3 3 4 6 9 7 7 6 6 6 5 5 5
2 2 4 3 3 2 1 2 3 3 3 5 5 5 5 5 3 3 4 4 3 3 4 3 4 4 4 4 5 6 7 8 8 8 7 7 6 6
2 1 3 4 3 2 1 1 2 1 3 4 4 4 4 3 3 2 1 2 2 2 4 4 4 4 3 4 4 5 5 5 7 7 8 9 8 7
1 1 4 5 3 1 1 3 1 2 2 3 3 3 3 3 2 2 1 1 1 1 3 4 3 4 4 4 4 5 5 4 4 4 5 9 9 10
2 5 4 4 5 3 3 2 3 2 2 2 2 2 2 3 3 3 3 2 2 2 3 4 3 4 4 3 3 4 4 4 5 4 4 5 5 6
3 5 5 3 2 2 4 4 2 1 1 2 2 3 3 3 3 3 3 3 3 3 3 3 3 3 4 4 3 3 3 4 4 4 4 5 5 5
3 4 4 4 4 3 3 2 2 2 2 2 2 3 3 3 2 2 2 3 3 3 4 4 4 4 4 4 4 4 4 4 4 3 4 6 5 5
3 4 4 3 3 3 3 3 3 2 2 2 3 3 3 3 3 3 3 3 3 3 3 3 4 4 5 4 4 5 4 4 4 4 6 6 6 5
5 3 3 3 3 3 3 3 2 2 2 2 3 3 3 3 3 3 3 3 3 3 3 3 3 4 5 5 6 6 5 4 4 5 6 6 6 5
4 3 3 3 3 3 3 3 3 3 3 3 3 3 3 3 3 4 4 4 4 4 4 4 4 5 5 4 2 4 8 6 5 5 5 6 5 4
4 3 3 3 3 3 3 3 3 3 3 3 3 3 3 4 4 4 4 4 5 5 5 4 3 3 4 4 4 4 5 8 6 5 6 6 6 6
3 3 3 3 2 3 3 3 4 4 4 4 4 4 4 4 4 5 5 5 5 5 5 4 4 5 6 6 6 5 5 5 7 9 9 8 7 6
3 3 3 3 3 3 3 4 5 4 4 4 4 4 4 4 5 5 6 6 6 6 6 5 5 5 6 7 7 6 7 7 6 7 8 11 12 11
Wind_Direction
251 242 251 245 244 249 249 246 247 249 249 228 204 153 131 97 87 107 106 99 106 109 114 116 119 122 121 123 128 130 131 131 132 132 133 136 136 141
267 266 260 258 254 244 242 244 243 246 245 246 207 156 118 119 106 110 101 98 99 106 112 118 119 117 116 116 116 120 124 127 127 128 133 134 135 137
261 246 243 259 258 253 247 242 239 231 221 235 225 136 140 138 117 119 118 114 101 101 104 108 110 110 111 112 113 115 119 122 124 126 130 133 136 140
272 266 255 241 245 260 255 244 237 222 205 199 191 155 148 139 132 132 114 97 96 100 102 99 98 99 101 103 102 102 104 108 112 118 123 127 131 136
278 273 272 261 251 249 254 244 209 191 186 181 181 157 159 149 136 124 109 110 110 114 111 108 103 101 99 98 98 96 98 103 105 107 109 111 117 125
292 301 306 311 310 274 233 211 179 174 173 176 165 163 159 158 158 145 137 135 124 114 106 110 113 113 108 105 105 103 101 104 108 110 108 105 104 108
52 30 54 56 40 357 303 200 184 191 180 172 174 173 165 170 177 170 148 127 107 124 128 126 132 128 125 124 119 115 113 112 113 113 113 113 113 115
68 59 102 101 83 76 58 53 134 197 192 192 195 188 182 181 166 165 157 155 149 149 138 129 140 130 135 130 122 129 132 132 131 131 131 132 133 136
60 31 31 70 76 103 111 123 101 97 180 223 198 196 178 171 171 171 170 170 145 150 158 145 154 137 141 121 136 149 152 153 152 151 149 147 147 151
62 51 55 74 52 38 107 102 89 78 75 121 138 163 150 155 168 157 143 127 117 140 178 172 161 157 154 142 151 166 170 172 171 170 170 170 172 178
76 51 34 80 57 6 128 115 105 97 82 76 73 84 94 111 138 148 151 157 152 165 191 186 167 168 174 170 158 172 180 184 186 186 185 187 195 207
123 114 77 56 67 3 165 139 131 116 113 116 113 122 125 127 150 179 176 177 163 167 173 192 182 184 184 185 178 177 185 186 193 197 198 202 212 232
164 142 99 90 80 39 327 72 83 118 140 136 130 129 132 135 150 162 216 210 194 175 163 188 191 200 198 173 182 188 193 188 190 193 201 208 218 241
166 118 100 115 110 81 71 75 95 230 166 147 140 137 138 137 135 133 126 64 18 96 158 198 205 211 208 195 189 188 199 206 206 204 200 189 212 227
86 77 105 147 162 145 134 164 213 196 159 156 148 139 131 129 137 139 139 137 124 142 169 213 226 211 234 228 205 195 199 202 208 217 218 212 214 213
158 139 154 171 187 124 160 187 205 175 180 164 152 144 145 154 161 159 164 170 166 158 168 203 241 236 234 235 230 213 208 205 204 216 230 233 227 231
174 184 185 181 185 180 178 177 179 175 189 182 165 157 161 164 162 170 188 191 193 184 170 179 196 216 241 256 235 228 223 222 212 202 232 244 233 228
208 199 196 201 202 195 192 185 190 197 196 188 182 180 181 181 179 187 200 210 209 208 197 185 190 197 209 208 243 245 235 231 218 208 237 246 243 230
212 206 200 205 209 205 206 204 197 190 202 203 197 194 196 197 194 198 207 216 219 219 212 206 216 230 236 227 198 224 246 240 233 225 230 243 253 250
219 217 209 206 207 212 211 211 204 189 199 209 208 206 208 210 211 217 219 229 228 222 218 216 226 241 257 266 245 202 218 239 243 245 246 246 249 240
207 219 220 213 209 209 213 213 209 206 208 216 215 216 220 223 227 232 228 217 242 237 235 228 213 243 260 264 255 230 206 213 248 264 263 261 256 246
208 216 221 224 215 217 214 213 212 211 210 220 220 221 227 234 236 241 243 232 231 239 243 233 189 216 236 245 253 249 235 212 215 230 250 263 272 274
207 216 220 222 222 221 223 223 227 227 222 225 226 226 232 238 245 243 241 242 242 242 243 239 224 223 237 244 251 254 247 238 234 222 224 218 225 242